Wind_Speed
2 3 4 3 4 3 3 3 3 3 2 3 4 6 6 5 6 4 2 4 6 5 3 1 5 7 7 13 10 12 12 9 6 6 9 8 7 8 5 4 6 7 8 11 18
1 1 2 2 3 3 2 3 3 3 3 3 5 6 6 3 5 6 5 5 7 5 2 7 8 6 13 10 10 16 10 9 8 6 8 5 5 9 7 10 11 8 6 11 18
2 1 1 0 1 1 2 3 3 4 3 3 5 5 4 5 6 5 2 7 6 4 3 5 5 10 8 9 10 15 8 10 3 4 9 10 5 2 6 11 15 16 18 15 18
3 2 2 1 1 1 2 3 3 4 3 3 5 5 1 4 2 2 5 7 5 1 5 5 6 12 8 10 10 9 4 2 8 5 6 8 3 3 8 17 9 10 17 19 19
3 2 1 1 2 2 2 2 3 3 3 3 4 4 3 9 7 7 7 5 4 3 5 4 5 7 8 4 7 13 5 4 3 2 2 2 7 7 7 8 7 5 12 16 18
5 4 3 2 2 2 2 2 2 3 2 3 2 4 4 13 4 6 4 2 2 4 3 5 4 7 5 10 13 8 5 2 4 2 4 9 9 3 4 7 13 6 12 15 18
5 4 3 2 3 3 3 2 2 2 2 0 1 3 6 4 5 6 4 3 4 3 6 3 5 9 5 7 8 8 13 13 8 2 4 9 17 7 9 7 11 15 16 12 16
6 4 3 3 4 4 4 4 2 2 2 1 1 2 2 0 5 8 6 5 4 3 5 6 7 11 10 6 9 13 15 13 12 1 7 7 7 10 8 9 10 15 15 16 18
6 3 3 4 6 7 5 2 1 3 2 0 0 3 6 1 3 6 8 5 4 6 8 9 8 14 9 13 14 11 14 17 10 8 7 8 16 14 10 11 11 11 15 15 6
8 3 3 5 7 8 5 6 5 3 1 1 3 7 5 3 2 4 5 7 6 6 8 9 11 13 12 7 7 4 3 5 6 10 12 13 11 6 8 10 9 6 10 12 24
10 4 2 4 6 10 4 3 3 4 9 10 2 3 7 3 4 4 5 6 7 9 14 9 13 8 14 8 8 6 7 6 7 8 10 16 9 2 5 6 10 9 2 21 22
11 6 1 1 3 6 8 4 7 7 9 6 4 5 3 2 5 5 5 9 10 7 5 12 9 5 4 5 6 6 8 9 8 3 8 14 10 8 3 8 12 11 10 17 14
11 8 2 2 2 2 3 5 8 6 9 6 4 7 7 6 1 7 7 2 6 5 6 8 11 2 7 3 9 5 6 10 14 15 17 13 14 14 11 10 12 16 11 17 11
10 7 2 3 3 1 1 8 8 4 6 8 9 6 7 5 4 1 2 7 6 7 5 6 5 6 8 4 10 7 11 13 15 15 14 18 12 13 14 13 14 18 14 15 12
9 6 3 7 3 6 4 9 7 4 4 6 9 7 6 7 8 8 2 8 6 6 8 11 6 5 2 10 9 14 13 15 19 20 15 13 7 13 9 17 16 18 18 16 18
9 5 3 3 5 5 7 9 7 7 3 7 7 11 12 8 3 8 5 2 3 4 5 8 1 4 9 7 5 11 16 20 23 18 12 13 4 4 10 3 16 18 16 13 13
8 4 3 1 4 7 7 7 7 7 4 7 9 8 12 10 5 3 4 3 7 7 4 4 10 6 4 12 13 17 16 11 7 9 9 5 5 12 13 13 19 18 13 11 11
6 2 3 2 5 5 5 8 8 7 1 4 4 5 7 5 5 3 6 9 5 9 11 5 2 5 8 10 12 20 10 8 12 13 14 18 7 1 15 17 24 19 15 13 16
3 3 0 6 2 3 10 8 3 4 5 5 6 11 10 7 8 6 5 8 8 7 9 8 5 2 4 8 9 10 11 14 10 19 13 7 15 12 16 11 14 17 15 15 12
0 2 1 4 3 5 10 5 2 3 6 7 12 1 10 8 6 8 8 5 4 4 6 4 11 8 4 8 10 5 7 9 6 10 10 12 8 7 11 11 15 14 15 14 10
1 6 3 2 4 10 8 4 2 3 5 5 8 5 9 3 8 5 3 7 4 3 6 7 7 12 14 2 10 12 8 8 8 8 9 11 7 10 10 13 14 16 14 12 11
2 4 4 1 11 3 3 3 2 4 3 4 6 8 7 3 7 5 4 10 3 5 6 7 6 10 17 6 4 8 4 6 7 11 11 11 5 11 12 16 16 15 11 10 12
8 5 3 2 5 5 4 3 1 3 2 5 5 2 2 8 5 5 2 7 3 3 9 8 5 9 11 6 4 5 12 10 9 8 14 12 3 9 10 13 14 12 14 10 12
7 3 3 3 3 8 1 2 3 0 2 5 7 6 7 8 6 6 6 4 3 6 5 3 7 12 12 15 14 11 12 11 8 9 14 10 8 12 14 14 14 10 5 11 11
3 4 4 2 3 5 4 2 6 3 2 3 5 7 6 7 9 6 3 9 9 4 4 2 11 14 16 17 15 16 12 10 11 16 11 12 14 11 12 11 6 8 11 7 11
8 6 3 1 4 7 3 2 5 3 5 2 5 2 6 4 7 8 5 6 5 5 8 8 11 14 17 17 17 12 10 9 10 10 14 9 6 10 13 9 9 9 10 15 13
6 4 5 5 5 7 3 2 1 3 3 5 7 4 7 9 8 6 4 3 6 8 10 10 11 12 16 17 13 9 7 6 9 11 11 9 6 13 9 8 6 12 14 12 15
Wind_Direction
241 232 232 233 233 230 230 237 247 256 260 285 312 325 336 336 132 117 133 175 215 195 180 245 261 244 229 229 230 245 262 185 139 260 117 136 217 129 199 278 205 188 27 115 156
54 200 203 205 216 222 226 236 246 252 253 287 318 332 346 149 174 223 273 209 175 169 329 259 246 211 211 197 206 235 255 81 62 19 310 147 250 124 193 202 189 187 134 145 162
87 105 114 196 232 233 236 244 244 245 250 295 323 333 346 202 274 82 255 173 157 177 313 283 264 232 212 190 196 234 336 64 156 5 319 302 186 210 219 235 206 189 165 166 175
64 63 59 22 313 291 265 257 253 246 254 301 326 333 279 241 318 62 132 137 132 191 284 260 228 227 217 223 190 265 353 8 2 320 279 253 339 212 241 280 346 206 185 163 188
51 47 28 5 360 337 306 287 267 248 262 313 328 342 174 239 73 145 131 126 116 302 286 295 250 252 235 239 205 245 145 245 61 226 229 1 254 283 277 249 196 275 179 168 197
45 39 32 24 13 354 335 304 270 249 272 313 337 341 283 260 119 157 153 171 211 271 286 304 347 323 334 261 235 211 287 242 235 98 194 269 275 236 256 354 297 206 267 174 207
38 32 26 36 43 34 15 332 275 246 249 210 359 328 271 56 178 188 182 219 226 263 300 328 309 270 336 224 250 257 245 200 205 330 61 316 265 207 9 316 282 286 223 212 217
19 19 40 28 7 352 331 308 281 224 183 171 22 208 331 155 216 208 205 212 219 262 278 292 285 274 263 317 243 241 236 280 111 265 128 253 296 72 4 329 301 295 272 231 225
22 16 9 10 4 355 356 16 148 156 164 191 63 233 141 177 165 196 202 237 248 262 259 264 266 258 241 238 234 202 255 224 144 105 307 228 301 61 15 344 335 313 289 258 109
17 10 20 26 20 21 68 82 95 112 112 137 252 252 190 69 83 173 208 219 239 234 237 234 227 230 212 257 330 12 243 241 246 55 341 303 312 26 356 347 352 341 308 40 64
11 3 31 37 44 39 48 311 233 204 225 288 27 289 131 114 148 169 185 205 228 230 242 220 240 12 35 2 347 353 318 305 28 52 298 303 298 271 344 6 14 356 18 61 70
6 1 285 52 31 34 42 7 15 337 280 215 247 245 187 174 182 159 193 239 236 211 235 230 75 53 8 335 305 299 300 20 308 205 275 284 282 218 108 55 45 29 45 86 82
1 360 311 213 318 341 11 10 342 315 252 139 178 193 175 210 297 132 236 251 286 235 326 5 73 100 279 204 317 202 354 348 320 314 289 291 263 153 135 93 78 73 53 85 77
354 352 320 210 254 270 186 341 336 301 255 136 175 171 182 221 158 14 259 297 219 1 286 42 71 284 256 92 330 323 14 325 309 306 304 314 297 192 149 134 97 80 67 64 87
346 342 339 220 281 283 315 326 317 297 214 142 141 142 179 244 129 143 207 257 350 54 267 81 31 334 302 24 330 348 321 293 292 286 280 304 227 140 179 79 87 76 66 68 74
341 330 339 339 258 283 313 311 316 237 134 142 152 188 189 196 187 134 201 295 348 301 318 75 4 13 4 297 246 293 309 311 277 257 250 121 301 309 128 112 101 88 79 72 81
341 318 296 211 308 300 306 286 235 264 147 158 180 200 210 160 171 254 163 215 312 288 205 262 173 120 312 329 346 351 313 316 325 335 316 104 287 54 66 64 100 100 90 80 89
344 346 316 314 305 298 299 251 266 35 66 71 263 218 233 128 215 213 241 244 153 306 313 343 118 340 16 350 334 299 339 295 332 313 311 280 350 307 77 65 92 98 98 90 89
359 357 321 302 276 301 270 237 330 17 19 296 208 243 190 195 271 222 249 7 28 354 323 328 307 146 75 337 315 342 313 339 286 261 266 324 100 57 46 99 94 105 107 101 101
11 234 321 326 258 282 262 282 22 23 304 247 268 230 291 174 200 197 168 102 120 3 338 14 301 314 334 293 199 279 316 342 321 319 308 311 357 40 16 22 120 112 104 110 116
32 246 13 307 272 249 253 75 163 91 324 305 299 289 275 321 288 307 54 109 14 56 334 342 302 306 309 2 346 316 315 1 311 279 318 306 14 48 20 23 78 94 96 100 84
316 269 7 285 248 261 308 57 359 291 269 264 279 293 298 9 291 297 349 53 48 350 333 51 305 297 307 32 292 289 302 352 323 315 320 290 308 52 30 45 66 82 89 85 46
331 313 328 249 272 207 88 168 296 293 16 305 274 270 310 287 294 248 25 63 30 19 14 12 321 313 311 164 356 299 329 318 326 311 282 295 79 17 80 58 56 90 80 39 351
316 275 135 231 292 311 263 193 204 138 237 280 294 254 254 250 216 279 214 95 41 62 47 341 293 289 293 315 318 304 307 308 324 290 292 312 359 8 32 51 65 62 11 339 347
340 67 326 340 106 302 265 1 266 204 270 270 223 273 275 260 251 234 242 145 179 135 225 275 298 305 296 305 298 285 289 314 314 305 310 347 29 19 24 67 28 347 346 7 6
335 333 304 105 276 246 142 192 289 130 310 121 282 312 268 278 360 18 342 8 348 203 339 314 288 292 293 280 272 293 311 313 295 338 341 4 55 326 44 32 354 353 338 18 7
350 308 280 119 198 255 113 56 20 276 81 14 324 277 96 33 357 12 18 332 312 299 304 294 291 294 287 296 299 297 358 313 34 27 25 12 336 26 25 346 339 6 3 6 340
Height
1537 1538 1538 1537 1537 1537 1537 1536 1536 1535 1534 1534 1533 1532 1530 1528 1527 1526 1526 1526 1526 1525 1523 1524 1523 1521 1520 1515 1514 1509 1494 1489 1494 1492 1493 1499 1499 1502 1507 1504 1510 1511 1509 1515 1523
1538 1538 1538 1537 1537 1537 1536 1536 1535 1535 1534 1534 1533 1531 1530 1528 1526 1526 1526 1526 1525 1525 1523 1523 1519 1519 1514 1511 1510 1502 1487 1485 1489 1493 1492 1494 1499 1497 1505 1505 1504 1510 1515 1519 1525
1539 1539 1538 1537 1537 1536 1536 1535 1535 1535 1534 1534 1533 1531 1530 1528 1527 1524 1525 1525 1525 1524 1524 1523 1520 1516 1509 1508 1505 1499 1490 1489 1496 1499 1500 1497 1497 1500 1500 1497 1497 1502 1506 1519 1525
1539 1538 1538 1537 1537 1536 1536 1535 1535 1535 1534 1534 1532 1531 1529 1528 1521 1525 1525 1526 1525 1523 1524 1521 1518 1512 1506 1506 1504 1501 1498 1499 1497 1501 1501 1498 1496 1498 1499 1496 1499 1497 1499 1510 1522
1539 1538 1538 1538 1537 1536 1536 1535 1535 1535 1534 1533 1532 1531 1530 1527 1525 1526 1526 1526 1525 1525 1523 1519 1513 1509 1504 1502 1505 1502 1497 1501 1501 1501 1501 1501 1499 1497 1495 1498 1499 1500 1499 1507 1518
1540 1539 1538 1538 1537 1536 1535 1535 1535 1534 1534 1533 1532 1531 1530 1526 1527 1528 1528 1527 1527 1525 1522 1518 1515 1513 1507 1506 1503 1500 1501 1499 1500 1500 1501 1501 1495 1498 1497 1499 1499 1501 1502 1499 1512
1541 1540 1539 1538 1537 1536 1535 1535 1534 1534 1533 1533 1532 1530 1530 1526 1527 1528 1528 1527 1527 1525 1522 1521 1520 1517 1510 1504 1505 1504 1503 1495 1497 1498 1500 1505 1497 1493 1500 1502 1503 1499 1500 1499 1507
1542 1541 1540 1538 1537 1536 1535 1534 1533 1533 1532 1532 1531 1530 1526 1527 1527 1527 1527 1526 1526 1525 1524 1522 1520 1517 1512 1507 1506 1502 1499 1499 1491 1499 1501 1504 1496 1495 1503 1502 1501 1499 1498 1499 1500
1542 1541 1540 1538 1537 1535 1534 1533 1532 1532 1532 1532 1531 1530 1525 1526 1525 1525 1525 1525 1524 1524 1522 1520 1519 1513 1508 1505 1498 1495 1501 1491 1491 1495 1500 1498 1498 1495 1503 1503 1502 1501 1498 1497 1501
1543 1541 1540 1539 1537 1535 1534 1533 1533 1533 1532 1531 1530 1534 1525 1524 1524 1525 1525 1525 1523 1521 1519 1519 1512 1503 1492 1492 1504 1493 1494 1489 1500 1495 1501 1496 1496 1497 1505 1506 1504 1504 1503 1501 1506
1543 1541 1540 1539 1538 1536 1534 1533 1536 1535 1532 1526 1525 1524 1523 1525 1525 1524 1524 1523 1521 1518 1509 1507 1502 1503 1502 1504 1501 1499 1500 1502 1495 1500 1508 1500 1503 1499 1506 1507 1508 1509 1506 1513 1518
1542 1540 1539 1539 1538 1537 1535 1534 1535 1536 1527 1526 1526 1526 1525 1525 1522 1523 1524 1520 1514 1508 1508 1503 1508 1509 1509 1508 1505 1503 1502 1501 1498 1499 1503 1498 1497 1491 1504 1510 1514 1511 1511 1519 1527
1542 1539 1538 1539 1539 1538 1537 1537 1535 1534 1528 1523 1524 1523 1524 1524 1520 1520 1522 1518 1512 1509 1505 1505 1508 1514 1510 1507 1508 1500 1511 1512 1512 1502 1495 1487 1493 1489 1503 1509 1515 1517 1521 1524 1531
1541 1539 1539 1539 1540 1537 1536 1536 1535 1533 1520 1522 1521 1523 1524 1522 1521 1523 1522 1519 1512 1510 1509 1507 1511 1512 1509 1510 1512 1511 1509 1511 1509 1509 1510 1490 1509 1484 1495 1504 1512 1517 1525 1529 1536
1541 1539 1539 1539 1537 1536 1537 1536 1534 1533 1531 1515 1517 1521 1520 1519 1519 1522 1523 1518 1513 1512 1511 1514 1512 1511 1511 1516 1516 1514 1512 1509 1503 1500 1496 1484 1498 1495 1491 1515 1504 1522 1535 1541 1542
1540 1539 1538 1539 1538 1538 1536 1535 1533 1529 1533 1515 1515 1517 1518 1517 1517 1520 1520 1521 1520 1514 1512 1513 1517 1516 1517 1517 1515 1514 1510 1505 1491 1483 1499 1491 1499 1493 1510 1505 1523 1532 1541 1545 1546
1539 1538 1537 1537 1537 1537 1536 1534 1529 1526 1510 1516 1513 1513 1509 1515 1517 1517 1518 1518 1518 1524 1521 1509 1510 1514 1519 1517 1511 1512 1514 1522 1514 1508 1504 1489 1501 1501 1504 1511 1519 1533 1545 1548 1549
1539 1538 1537 1537 1537 1537 1536 1530 1536 1512 1512 1514 1514 1512 1514 1514 1517 1519 1519 1519 1519 1519 1515 1518 1528 1520 1520 1523 1526 1521 1519 1526 1544 1532 1515 1486 1504 1534 1524 1539 1529 1541 1547 1550 1553
1538 1539 1539 1538 1536 1536 1535 1528 1519 1515 1518 1518 1513 1514 1513 1515 1520 1519 1518 1517 1523 1523 1530 1526 1523 1514 1523 1525 1525 1524 1522 1515 1527 1508 1507 1492 1507 1517 1530 1545 1540 1545 1549 1550 1557
1538 1539 1538 1537 1536 1537 1529 1531 1521 1526 1527 1521 1520 1513 1513 1509 1518 1515 1515 1523 1529 1530 1527 1525 1538 1517 1519 1523 1519 1523 1521 1527 1516 1539 1536 1506 1505 1525 1521 1524 1534 1542 1547 1552 1557
1539 1536 1537 1538 1538 1534 1525 1521 1524 1529 1529 1525 1519 1519 1517 1517 1518 1513 1518 1528 1530 1531 1530 1528 1531 1528 1519 1517 1527 1524 1519 1525 1529 1526 1533 1530 1521 1529 1530 1527 1529 1544 1548 1554 1559
1541 1533 1538 1538 1535 1528 1520 1527 1534 1529 1530 1528 1527 1522 1521 1519 1522 1520 1524 1529 1538 1535 1533 1536 1539 1539 1528 1517 1524 1526 1525 1529 1541 1542 1530 1532 1530 1534 1536 1535 1537 1548 1555 1560 1561
1544 1539 1539 1538 1528 1524 1530 1531 1534 1532 1531 1529 1526 1527 1525 1526 1534 1528 1526 1539 1541 1538 1540 1540 1538 1545 1532 1524 1533 1531 1525 1524 1527 1533 1536 1531 1541 1548 1539 1543 1547 1553 1559 1562 1562
1547 1536 1536 1538 1537 1535 1531 1530 1531 1537 1534 1533 1530 1531 1528 1528 1528 1530 1530 1540 1545 1545 1547 1546 1543 1544 1543 1530 1525 1529 1527 1524 1531 1541 1529 1525 1530 1540 1539 1543 1553 1558 1560 1561 1559
1549 1545 1548 1531 1536 1538 1539 1537 1533 1533 1535 1534 1531 1530 1528 1530 1527 1527 1530 1535 1542 1546 1544 1546 1550 1541 1533 1526 1525 1522 1523 1524 1533 1531 1534 1531 1544 1545 1546 1552 1556 1559 1559 1560 1560
1555 1553 1549 1544 1546 1541 1541 1538 1537 1537 1539 1533 1533 1534 1531 1533 1532 1534 1534 1536 1538 1541 1541 1544 1548 1542 1539 1527 1522 1521 1524 1532 1531 1534 1536 1546 1553 1555 1553 1557 1558 1559 1556 1558 1562
1559 1557 1554 1547 1544 1541 1536 1542 1542 1543 1544 1543 1541 1536 1536 1546 1546 1546 1545 1546 1547 1547 1547 1547 1544 1545 1543 1528 1524 1534 1540 1538 1539 1549 1562 1559 1558 1553 1555 1556 1555 1557 1558 1560 1561